Location: Lugrin
(46.4033°N, 6.6674°E)
Time: 16:17:29
(UTC+00:00)

Cosmos 2285 Rocket - Pass Details

Date: 18 September 2020
Orbit: 970 x 1000 km, 74.0° (Epoch: 29 October)

Event Time Altitude Azimuth Distance (km) Brightness Sun altitude
Rises 19:31:43 0° 183° (S) 3,649 6.8 -19.8°
Reaches altitude 10° 19:34:17 10° 179° (S) 2,708 6.1 -20.2°
Maximum altitude 19:40:21 53° 104° (ESE) 1,187 4.0 -21.1°
Drops below altitude 10° 19:46:28 10° 30° (NNE) 2,742 6.3 -22.0°
Sets 19:49:05 0° 26° (NNE) 3,698 7.1 -22.4°
